Home > Weather > Marburg > Past weeks

Flag for Germany Weather for the Past 2 Weeks in Marburg, Hesse, Germany

Now
54 °F

Sunny.


Feels Like: 49 °F
Forecast: 46 / 70 °F
Wind: 15 mph from Southeast

Location: Hessen

Current Time: May 6, 2016 at 10:29:59 AM

Latest Report: May 6, 2016 at 9:50 AM


Visibility: 10 mi

Pressure: 30.04 "Hg

Humidity: 77%

Dew Point: 46 °F

Location of MarburgLocation

Historic Weather in Marburg — Graph

°F

Marburg Temperature Yesterday

Maximum temperature yesterday: 59 °F (at 3:20 PM)
Minimum temperature yesterday: 39 °F (at 7:20 AM)
Average temperature yesterday: 53 °F

High & Low Weather Summary for the Past Weeks

 TemperatureHumidityPressure
High63 °F (Apr 21, 5:20 PM)100% (Apr 23, 7:50 AM)30.36 "Hg (Apr 23, 7:50 AM)
Low30 °F (Apr 24, 7:50 AM)30% (Apr 21, 5:50 PM)29.47 "Hg (Apr 26, 7:50 AM)
Average44 °F69%29.99 "Hg
* Reported Apr 21 8:20 AM — May 6 8:50 AM, Marburg, Weather by CustomWeather, © 2016

Note: Actual official high and low records may vary slightly from our data, if they occured in-between our weather recording intervals... More about our weather records

Advertising

Marburg Weather History for the Previous 24 Hours

Scroll right to see more
 ConditionsComfort  
Time TempWeatherWind HumidityBarometerVisibility
8:50 AM
Fri, May 6
52 °FSunny.14 mph82%30.04 "Hg10 mi
8:20 AM50 °FSunny.12 mph82%30.04 "Hg10 mi
7:50 AM48 °FSunny.9 mph87%30.04 "Hg10 mi
7:20 AM46 °FSunny.9 mph93%30.04 "Hg10 mi
8:50 PM
Thu, May 5
55 °FSunny.12 mph59%30.12 "Hg10 mi
8:20 PM57 °FSunny.15 mph51%30.12 "Hg10 mi
7:50 PM57 °FSunny.13 mph55%30.12 "Hg10 mi
7:20 PM59 °FSunny.17 mph51%30.15 "Hg10 mi
6:50 PM59 °FPassing clouds.16 mph51%30.15 "HgN/A
6:20 PM59 °FSunny.17 mph51%30.15 "Hg10 mi
5:50 PM59 °FPassing clouds.15 mph51%30.15 "HgN/A
5:20 PM59 °FSunny.16 mph48%30.18 "Hg10 mi
4:50 PM59 °FPassing clouds.16 mph48%30.18 "HgN/A
4:20 PM59 °FPassing clouds.16 mph51%30.18 "HgN/A
3:50 PM57 °FPassing clouds.17 mph51%30.21 "HgN/A
3:20 PM59 °FPassing clouds.15 mph51%30.21 "HgN/A
2:50 PM57 °FPassing clouds.16 mph51%30.21 "HgN/A
2:20 PM55 °FSunny.17 mph55%30.21 "Hg10 mi
1:50 PM55 °FPassing clouds.16 mph55%30.24 "HgN/A
1:20 PM54 °FSunny.15 mph58%30.24 "Hg10 mi
12:50 PM54 °FPassing clouds.17 mph58%30.24 "HgN/A
12:20 PM52 °FPassing clouds.16 mph58%30.27 "HgN/A
11:50 AM52 °FPassing clouds.16 mph62%30.27 "HgN/A
11:20 AM52 °FSunny.18 mph62%30.27 "Hg10 mi
10:50 AM50 °FSunny.18 mph62%30.27 "Hg10 mi
10:20 AM48 °FSunny.18 mph66%30.27 "Hg10 mi
Weather by CustomWeather, © 2016

See weather overviewHow to use our weather pages